CW4621 Weather Reports


time (UTC)temp
C
wind
direction
speed
KPH
gust
KPH
rain 1hr
cm
rain 24hr
cm
rain mn
cm
humidity
%
barometer
mb
20260504151104 19 6 3.2 14.5 0.00 0.00 0.00 42 1013.3
20260504150606 19 209 4.8 11.3 0.00 0.00 0.00 42 1013.3
20260504150105 19 191 4.8 12.9 0.00 0.00 0.00 43 1013.3
20260504140604 17 195 4.8 12.9 0.00 0.00 0.00 49 1013.5
20260504140105 17 184 4.8 9.7 0.00 0.00 0.00 51 1013.5
20260504130604 15 129 4.8 11.3 0.00 0.00 0.00 55 1013.9
20260504130105 15 170 4.8 9.7 0.00 0.00 0.00 56 1014.0
20260504120105 11 112 0.0 9.7 0.00 0.00 0.00 70 1014.5
20260504110604 8 146 0.0 3.2 0.00 0.00 0.00 73 1014.7
20260504110105 7 127 1.6 3.2 0.00 0.00 0.00 74 1014.8
20260504090104 9 126 0.0 1.6 0.00 0.00 0.00 65 1014.6
20260504081104 8 233 1.6 4.8 0.00 0.00 0.00 64 1014.5
20260504080605 8 141 1.6 3.2 0.00 0.00 0.00 64 1014.6
20260504080104 8 114 1.6 1.6 0.00 0.00 0.00 63 1014.6
20260504070104 6 127 0.0 1.6 0.00 0.00 0.00 65 1014.3
20260504060104 7 111 0.0 0.0 0.00 0.00 0.00 62 1014.3
20260504050604 7 124 0.0 1.6 0.00 0.00 0.00 59 1014.2
20260504050104 7 124 0.0 0.0 0.00 0.00 0.00 58 1014.3
20260504045604 7 124 0.0 0.0 0.00 0.00 0.00 58 1014.2
20260504044605 7 124 0.0 1.6 0.00 0.00 0.00 57 1014.1
20260504043605 7 124 0.0 0.0 0.00 0.00 0.00 56 1014.0
20260504042605 8 124 0.0 1.6 0.00 0.00 0.00 56 1013.9
20260504042104 8 124 0.0 0.0 0.00 0.00 0.00 56 1013.9
20260504041604 8 124 0.0 0.0 0.00 0.00 0.00 56 1013.9
20260504040605 8 124 0.0 0.0 0.00 0.00 0.00 55 1013.8
20260504035605 8 124 0.0 1.6 0.00 0.00 0.00 54 1013.7
20260504034604 8 124 0.0 0.0 0.00 0.00 0.00 53 1013.6
20260504034106 8 124 0.0 1.6 0.00 0.00 0.00 53 1013.6
20260504033605 8 161 0.0 1.6 0.00 0.00 0.00 53 1013.6
20260504032605 9 109 0.0 0.0 0.00 0.00 0.00 51 1013.5
20260504032105 9 109 0.0 1.6 0.00 0.00 0.00 51 1013.5
20260504031605 9 108 0.0 1.6 0.00 0.00 0.00 51 1013.4
20260504031106 9 205 0.0 1.6 0.00 0.00 0.00 51 1013.4
20260504030105 9 230 0.0 1.6 0.00 0.00 0.00 50 1013.5
20260504025105 9 237 0.0 1.6 0.00 0.00 0.00 50 1013.5
20260504024605 10 237 0.0 1.6 0.00 0.00 0.00 49 1013.6
20260504024105 10 235 0.0 1.6 0.00 0.00 0.00 49 1013.6
20260504023605 10 114 0.0 1.6 0.00 0.00 0.00 49 1013.6
20260504023105 10 198 0.0 1.6 0.00 0.00 0.00 48 1013.6
20260504022604 10 101 0.0 1.6 0.00 0.00 0.00 48 1013.6
20260504022105 10 101 0.0 0.0 0.00 0.00 0.00 48 1013.5
20260504021605 10 142 0.0 1.6 0.00 0.00 0.00 48 1013.5
20260504021105 10 134 0.0 0.0 0.00 0.00 0.00 47 1013.4
20260504020606 10 134 0.0 1.6 0.00 0.00 0.00 47 1013.4
20260504020105 10 136 0.0 0.0 0.00 0.00 0.00 47 1013.4
20260504015105 10 136 0.0 0.0 0.00 0.00 0.00 47 1013.5
20260504014606 10 136 0.0 0.0 0.00 0.00 0.00 46 1013.4
20260504013605 10 136 0.0 0.0 0.00 0.00 0.00 46 1013.3
20260504013105 10 136 0.0 0.0 0.00 0.00 0.00 45 1013.2
20260504012604 10 136 0.0 0.0 0.00 0.00 0.00 45 1013.2
20260504012104 10 136 0.0 1.6 0.00 0.00 0.00 45 1013.2
20260504011606 10 136 0.0 0.0 0.00 0.00 0.00 44 1013.1
20260504010605 11 136 0.0 0.0 0.00 0.00 0.00 43 1012.9
20260504010105 11 136 0.0 0.0 0.00 0.00 0.00 42 1012.9
20260504005605 11 137 0.0 0.0 0.00 0.00 0.00 41 1012.8
20260504005105 11 137 0.0 0.0 0.00 0.00 0.00 40 1012.8
20260504004605 12 137 0.0 0.0 0.00 0.00 0.00 40 1012.7
20260504003605 12 136 0.0 1.6 0.00 0.00 0.00 38 1012.5
20260504002104 13 198 1.6 3.2 0.00 0.00 0.00 37 1012.3
20260504001604 13 195 0.0 4.8 0.00 0.00 0.00 36 1012.3
20260504001106 13 288 0.0 4.8 0.00 0.00 0.00 36 1012.2
20260504000605 13 129 0.0 4.8 0.00 0.00 0.00 35 1012.3
20260504000104 13 324 1.6 4.8 0.00 0.00 0.00 35 1012.2
20260503235104 14 312 1.6 4.8 0.00 0.00 0.00 35 1012.2
20260503234605 14 323 3.2 12.9 0.00 0.00 0.00 33 1012.2
20260503234105 14 181 1.6 11.3 0.00 0.00 0.00 33 1012.1
20260503233105 15 317 3.2 4.8 0.00 0.00 0.00 33 1012.0
20260503232605 15 126 3.2 4.8 0.00 0.00 0.00 32 1011.9
20260503232105 15 294 3.2 8.0 0.00 0.00 0.00 32 1011.9
20260503231605 15 192 3.2 9.7 0.00 0.00 0.00 32 1011.8
20260503231104 15 176 3.2 19.3 0.00 0.00 0.00 31 1011.8
20260503230604 15 347 4.8 14.5 0.00 0.00 0.00 31 1011.7
20260503230105 15 251 3.2 19.3 0.00 0.00 0.00 31 1011.7
20260503225604 15 312 4.8 12.9 0.00 0.00 0.00 31 1011.7
20260503225105 15 151 1.6 9.7 0.00 0.00 0.00 31 1011.6
20260503224604 15 313 4.8 14.5 0.00 0.00 0.00 30 1011.7
20260503224105 15 183 3.2 19.3 0.00 0.00 0.00 31 1011.7
20260503223605 15 100 4.8 14.5 0.00 0.00 0.00 30 1011.7
20260503222605 15 215 3.2 8.0 0.00 0.00 0.00 31 1011.7
20260503222105 15 289 4.8 14.5 0.00 0.00 0.00 30 1011.7
20260503221605 15 351 3.2 14.5 0.00 0.00 0.00 31 1011.7
20260503221105 16 180 8.0 16.1 0.00 0.00 0.00 30 1011.7
20260503220105 16 26 4.8 11.3 0.00 0.00 0.00 29 1011.7
20260503215605 16 198 3.2 16.1 0.00 0.00 0.00 30 1011.7
20260503215105 16 150 3.2 19.3 0.00 0.00 0.00 30 1011.8
20260503214605 16 202 4.8 14.5 0.00 0.00 0.00 30 1011.8
20260503213604 16 335 3.2 14.5 0.00 0.00 0.00 30 1011.7
20260503213104 16 19 4.8 12.9 0.00 0.00 0.00 31 1011.7
20260503212605 16 304 4.8 12.9 0.00 0.00 0.00 31 1011.7
20260503211605 16 262 4.8 20.9 0.00 0.00 0.00 30 1011.8
20260503211104 15 277 4.8 16.1 0.00 0.00 0.00 30 1011.7
20260503210604 16 306 4.8 14.5 0.00 0.00 0.00 30 1011.7
20260503210105 16 30 4.8 19.3 0.00 0.00 0.00 31 1011.7
20260503205605 16 22 6.4 11.3 0.00 0.00 0.00 31 1011.8
20260503205104 16 196 6.4 19.3 0.00 0.00 0.00 31 1011.8
20260503204605 16 302 1.6 12.9 0.00 0.00 0.00 31 1011.7
20260503204104 15 277 4.8 11.3 0.00 0.00 0.00 32 1011.8
20260503203105 15 9 1.6 8.0 0.00 0.00 0.00 32 1011.8
20260503202104 15 336 4.8 12.9 0.00 0.00 0.00 32 1011.8
20260503201605 15 237 4.8 14.5 0.00 0.00 0.00 31 1011.8
20260503201105 15 331 4.8 19.3 0.00 0.00 0.00 30 1011.9
20260503200605 15 298 4.8 19.3 0.00 0.00 0.00 30 1011.9
20260503200105 15 330 4.8 12.9 0.00 0.00 0.00 31 1011.9
20260503195605 15 244 4.8 12.9 0.00 0.00 0.00 30 1011.9
20260503195105 15 3 3.2 19.3 0.00 0.00 0.00 32 1011.8
20260503194605 15 18 3.2 11.3 0.00 0.00 0.00 31 1011.8
20260503194105 15 289 3.2 19.3 0.00 0.00 0.00 31 1011.9
20260503193605 15 302 4.8 19.3 0.00 0.00 0.00 31 1012.1
20260503193105 15 22 3.2 16.1 0.00 0.00 0.00 32 1012.0
20260503191605 15 313 6.4 19.3 0.00 0.00 0.00 31 1012.2
20260503191105 15 209 4.8 16.1 0.00 0.00 0.00 32 1012.2
20260503190604 15 137 4.8 19.3 0.00 0.00 0.00 32 1012.3
20260503190105 15 351 1.6 19.3 0.00 0.00 0.00 32 1012.3
20260503185605 15 46 4.8 11.3 0.00 0.00 0.00 31 1012.3
20260503184605 15 232 6.4 27.4 0.00 0.00 0.00 33 1012.3
20260503184104 15 320 4.8 12.9 0.00 0.00 0.00 32 1012.5
20260503183605 15 208 6.4 19.3 0.00 0.00 0.00 32 1012.7
20260503183104 14 297 4.8 16.1 0.00 0.00 0.00 35 1012.6
20260503181104 13 78 4.8 11.3 0.00 0.00 0.00 34 1012.8
20260503180605 13 294 6.4 19.3 0.00 0.00 0.00 35 1012.7
20260503180104 13 40 4.8 11.3 0.00 0.00 0.00 34 1012.7
20260503175604 13 337 8.0 19.3 0.00 0.00 0.00 32 1012.8
20260503175104 13 163 4.8 14.5 0.00 0.00 0.00 34 1012.8
20260503174604 13 331 6.4 20.9 0.00 0.00 0.00 37 1012.9
20260503174105 13 323 4.8 16.1 0.00 0.00 0.00 35 1012.8
20260503173605 13 275 4.8 12.9 0.00 0.00 0.00 36 1012.9
20260503173104 13 335 3.2 11.3 0.00 0.00 0.00 37 1012.8
20260503172605 13 163 4.8 20.9 0.00 0.00 0.00 36 1012.9
20260503172104 13 326 6.4 16.1 0.00 0.00 0.00 37 1013.0
20260503171604 13 283 6.4 16.1 0.00 0.00 0.00 36 1012.9
20260503171105 13 58 1.6 16.1 0.00 0.00 0.00 38 1012.9
20260503170605 13 220 4.8 19.3 0.00 0.00 0.00 37 1012.9
20260503170104 13 339 3.2 14.5 0.00 0.00 0.00 37 1013.0